College Station, TX

8:45 PM CDT on August 27, 2016 (GMT -0500)
Easterwood

Weather History for KCLL - September, 2013

Change the Weather History Date:

Saturday, September 21, 2013

  Actual Average Record
Temperature  
Mean Temperature 78 °F 78 °F  
Max Temperature 85 °F 89 °F 102 °F (2005)
Min Temperature 70 °F 68 °F 43 °F (1938)
Degree Days  
Heating Degree Days 0 0  
Month to date heating degree days 0 0  
Since 1 July heating degree days 0 0  
Cooling Degree Days 13 13  
Month to date cooling degree days 425 342  
Year to date cooling degree days 2902 2688  
Growing Degree Days 27 (Base 50)    
Moisture  
Dew Point 66 °F    
Average Humidity 74    
Maximum Humidity 100    
Minimum Humidity 47    
Precipitation  
Precipitation 0.01 in 0.10 in 1.28 in (1967)
Month to date precipitation 3.19 2.25  
Year to date precipitation 22.92 27.77  
Sea Level Pressure  
Sea Level Pressure 29.84 in    
Wind  
Wind Speed 12 mph (NNE)    
Max Wind Speed 21 mph    
Max Gust Speed 28 mph    
Visibility 10 miles    
Events Rain    
T = Trace of Precipitation, MM = Missing Value Source: NWS Daily Summary

Daily Weather History Graph

Daily Weather History Graph

Search for Another Location

Airport or City:

Trip Planner

Search our weather history database for the weather conditions in past years. The results will help you decide how hot, cold, wet, or windy it might be!

Date:

Astronomy

Sep. 21, 2013 Rise Set
Actual Time 7:13 AM CDT 7:22 PM CDT
Civil Twilight 6:49 AM CDT 7:46 PM CDT
Nautical Twilight 6:21 AM CDT 8:14 PM CDT
Astronomical Twilight 5:52 AM CDT 8:43 PM CDT
Moon 8:48 PM CDT (9/21) 9:20 AM CDT (9/21)
Length of Visible Light 12h 57m
Length of Day
12h 09m
Waning Gibbous, 94% of the Moon is Illuminated
Sep 21
Waning Gibbous
Sep 26
Last Quarter
Oct 4
New
Oct 11
First Quarter
Oct 18
Full

Hourly Weather History & Observations

Time (CDT) Temp. Heat Index Dew Point Humidity Pressure Visibility Wind Dir Wind Speed Gust Speed Precip Events Conditions
12:53 AM 71.1 °F - 70.0 °F 96% 29.81 in 10.0 mi North 11.5 mph - N/A   Overcast
1:03 AM 71.6 °F - 69.8 °F 94% 29.82 in 10.0 mi North 13.8 mph - 0.01 in   Overcast
1:35 AM 71.6 °F - 69.8 °F 94% 29.83 in 10.0 mi North 11.5 mph - 0.01 in   Overcast
1:44 AM 71.6 °F - 69.8 °F 94% 29.84 in 10.0 mi North 11.5 mph - 0.01 in   Overcast
1:53 AM 71.1 °F - 70.0 °F 96% 29.82 in 10.0 mi North 12.7 mph - 0.01 in   Overcast
2:53 AM 72.0 °F - 70.0 °F 93% 29.81 in 10.0 mi North 11.5 mph - N/A   Overcast
3:53 AM 72.0 °F - 70.0 °F 93% 29.82 in 10.0 mi NNE 11.5 mph - N/A   Overcast
4:44 AM 71.6 °F - 69.8 °F 94% 29.83 in 10.0 mi North 15.0 mph 25.3 mph 0.00 in   Overcast
4:53 AM 71.1 °F - 69.1 °F 93% 29.82 in 10.0 mi NNE 18.4 mph 24.2 mph 0.00 in   Overcast
5:24 AM 71.6 °F - 69.8 °F 94% 29.83 in 10.0 mi North 17.3 mph 24.2 mph 0.00 in   Overcast
5:44 AM 71.6 °F - 68.0 °F 88% 29.83 in 10.0 mi North 19.6 mph - 0.00 in   Mostly Cloudy
5:53 AM 71.1 °F - 68.0 °F 90% 29.81 in 10.0 mi North 15.0 mph 24.2 mph 0.00 in   Overcast
6:53 AM 70.0 °F - 69.1 °F 97% 29.83 in 10.0 mi North 13.8 mph 25.3 mph 0.00 in Rain Light Rain
7:53 AM 71.1 °F - 68.0 °F 90% 29.84 in 10.0 mi North 18.4 mph 24.2 mph 0.00 in Rain Light Rain
8:06 AM 71.6 °F - 68.0 °F 88% 29.85 in 10.0 mi North 16.1 mph 24.2 mph 0.00 in Rain Light Rain
8:23 AM 71.6 °F - 66.2 °F 83% 29.86 in 10.0 mi NNE 16.1 mph - 0.00 in   Mostly Cloudy
8:32 AM 71.6 °F - 66.2 °F 83% 29.86 in 10.0 mi NNE 13.8 mph 21.9 mph 0.00 in   Mostly Cloudy
8:53 AM 71.1 °F - 68.0 °F 90% 29.86 in 10.0 mi North 13.8 mph 20.7 mph 0.00 in   Overcast
9:03 AM 71.6 °F - 66.2 °F 83% 29.87 in 10.0 mi North 15.0 mph 21.9 mph N/A   Overcast
9:53 AM 71.1 °F - 66.0 °F 84% 29.88 in 10.0 mi North 12.7 mph - N/A   Overcast
10:08 AM 71.6 °F - 66.2 °F 83% 29.90 in 10.0 mi North 12.7 mph 20.7 mph N/A   Overcast
10:53 AM 72.0 °F - 66.0 °F 81% 29.90 in 10.0 mi NNE 10.4 mph - N/A   Overcast
11:53 AM 73.9 °F - 66.0 °F 76% 29.89 in 10.0 mi North 12.7 mph - N/A   Overcast
12:48 PM 77.0 °F - 64.4 °F 65% 29.89 in 10.0 mi NNE 17.3 mph - N/A   Overcast
12:53 PM 77.0 °F - 64.9 °F 66% 29.88 in 10.0 mi North 13.8 mph 21.9 mph N/A   Overcast
1:53 PM 81.0 °F 82.5 °F 64.0 °F 56% 29.85 in 10.0 mi NNE 17.3 mph 23.0 mph N/A   Overcast
2:53 PM 82.0 °F 83.1 °F 63.0 °F 52% 29.83 in 10.0 mi North 15.0 mph 24.2 mph N/A   Scattered Clouds
3:53 PM 84.0 °F 84.9 °F 63.0 °F 49% 29.81 in 10.0 mi NE 15.0 mph 21.9 mph N/A   Scattered Clouds
4:53 PM 84.0 °F 84.5 °F 62.1 °F 47% 29.80 in 10.0 mi NNE 10.4 mph 20.7 mph N/A   Partly Cloudy
5:53 PM 82.9 °F 83.3 °F 61.0 °F 47% 29.80 in 10.0 mi NE 10.4 mph - N/A   Scattered Clouds
6:53 PM 81.0 °F 81.7 °F 61.0 °F 50% 29.79 in 10.0 mi NNE 12.7 mph - N/A   Clear
7:53 PM 77.0 °F - 61.0 °F 58% 29.81 in 10.0 mi NNE 5.8 mph - N/A   Clear
8:53 PM 77.0 °F - 61.0 °F 58% 29.82 in 10.0 mi NNE 6.9 mph - N/A   Clear
9:53 PM 73.0 °F - 62.1 °F 68% 29.83 in 10.0 mi North 5.8 mph - N/A   Clear
10:53 PM 73.9 °F - 59.0 °F 59% 29.84 in 10.0 mi NNE 8.1 mph - N/A   Clear
11:53 PM 72.0 °F - 57.9 °F 61% 29.84 in 10.0 mi NNE 9.2 mph - N/A   Clear